Home   Weather   Haql   Past weeks

Flag for Saudi Arabia Past Weather in Haql, Saudi Arabia — Yesterday and Last 2 Weeks

Now
57 °F

Clear.


Feels Like: 55 °F
Forecast: 49 / 63 °F
Wind: 10 mph from North

Location: Eilat

Current Time: Dec 11, 2016 at 1:26:39 am

Latest Report: Dec 10, 2016 at 11:50 pm


Visibility: 10 mi

Pressure: 30.18 "Hg

Humidity: 39%

Dew Point: 32 °F

Location of HaqlLocation

Past Weather in Haql — Graph

°F

Haql Temperature Yesterday

Maximum temperature yesterday: 68 °F (at 3:50 pm)
Minimum temperature yesterday: 52 °F (at 7:00 am)
Average temperature yesterday: 61 °F

High & Low Weather Summary for the Past Weeks

 TemperatureHumidityPressure
High81 °F (Nov 28, 2:50 pm)77% (Dec 4, 6:50 am)30.30 "Hg (Dec 4, 6:50 am)
Low52 °F (Dec 3, 7:50 am)7% (Nov 26, 9:50 am)29.74 "Hg (Dec 1, 1:50 pm)
Average66 °F38%30.07 "Hg
* Reported Nov 26 7:50 am — Dec 10 11:50 pm, Haql, Weather by CustomWeather, © 2016

Note: Actual official high and low records may vary slightly from our data, if they occured in-between our weather recording intervals... More about our weather records

Advertising

Haql Weather History for the Previous 24 Hours

Scroll right to see more
 ConditionsComfort  
Time TempWeatherWind HumidityBarometerVisibility
11:50 pm
Sat, Dec 10
57 °FClear.10 mph39%30.18 "Hg10 mi
10:50 pm59 °FClear.13 mph34%30.18 "Hg10 mi
9:50 pm57 °FClear.9 mph39%30.18 "Hg10 mi
8:50 pm59 °FClear.10 mph36%30.18 "Hg10 mi
7:50 pm59 °FClear.9 mph36%30.18 "Hg10 mi
6:50 pm63 °FClear.7 mph32%30.15 "Hg10 mi
5:50 pm64 °FClear.13 mph30%30.12 "Hg10 mi
4:50 pm66 °FSunny.17 mph30%30.12 "Hg10 mi
3:50 pm68 °FSunny.18 mph28%30.12 "Hg10 mi
2:50 pm66 °FSunny.17 mph30%30.09 "Hg10 mi
1:50 pm66 °FSunny.16 mph32%30.12 "Hg10 mi
12:50 pm64 °FSunny.18 mph37%30.15 "Hg10 mi
11:50 am63 °FSunny.18 mph39%30.18 "Hg10 mi
10:50 am59 °FSunny.20 mph45%30.21 "Hg10 mi
9:50 am66 °FSunny.17 mph35%30.21 "Hg10 mi
8:50 am54 °FSunny.16 mph54%30.18 "Hg10 mi
7:50 am52 °FSunny.13 mph58%30.18 "Hg10 mi
7:00 am52 °FClear.12 mph58%30.18 "Hg10 mi
Weather by CustomWeather, © 2016

See weather overviewHow to use our weather pages